"datetime","temp","dp","rain_mm","uv","mb"
"2018-07-07 00:00:00",17.0,14.3,0.0,0.0,1021.9
"2018-07-07 00:01:00",16.9,14.2,0.0,0.0,1021.9
"2018-07-07 00:02:00",16.9,14.2,0.0,0.0,1021.9
"2018-07-07 00:03:00",16.9,14.2,0.0,0.0,1021.9
"2018-07-07 00:04:00",16.9,14.0,0.0,0.0,1021.9
"2018-07-07 00:05:00",16.8,13.9,0.0,0.0,1021.9
"2018-07-07 00:06:00",16.8,14.1,0.0,0.0,1021.8
"2018-07-07 00:07:00",16.8,14.1,0.0,0.0,1021.9
"2018-07-07 00:08:00",16.7,14.0,0.0,0.0,1021.9
"2018-07-07 00:09:00",16.7,14.0,0.0,0.0,1021.9
"2018-07-07 00:10:00",16.7,14.0,0.0,0.0,1021.9
"2018-07-07 00:11:00",16.8,14.1,0.0,0.0,1021.9
"2018-07-07 00:12:00",16.8,14.1,0.0,0.0,1021.9
"2018-07-07 00:13:00",16.8,14.1,0.0,0.0,1021.8
"2018-07-07 00:14:00",16.8,14.1,0.0,0.0,1021.9
"2018-07-07 00:15:00",16.8,14.1,0.0,0.0,1021.9
"2018-07-07 00:16:00",16.8,14.1,0.0,0.0,1021.9
"2018-07-07 00:17:00",16.8,14.1,0.0,0.0,1021.9
"2018-07-07 00:18:00",16.8,14.1,0.0,0.0,1021.9
"2018-07-07 00:19:00",16.8,14.1,0.0,0.0,1021.9
"2018-07-07 00:20:00",16.7,14.0,0.0,0.0,1021.9
"2018-07-07 00:21:00",16.7,14.0,0.0,0.0,1021.9
"2018-07-07 00:22:00",16.7,14.0,0.0,0.0,1021.9
"2018-07-07 00:23:00",16.7,14.0,0.0,0.0,1021.9
"2018-07-07 00:24:00",16.7,14.0,0.0,0.0,1021.9
"2018-07-07 00:25:00",16.7,14.0,0.0,0.0,1021.9
"2018-07-07 00:26:00",16.6,13.9,0.0,0.0,1021.9
"2018-07-07 00:27:00",16.6,13.9,0.0,0.0,1021.9
"2018-07-07 00:28:00",16.5,13.8,0.0,0.0,1021.9
"2018-07-07 00:29:00",16.5,13.8,0.0,0.0,1021.8
"2018-07-07 00:30:00",16.4,13.7,0.0,0.0,1021.8
"2018-07-07 00:31:00",16.4,13.7,0.0,0.0,1021.8
"2018-07-07 00:32:00",16.4,13.7,0.0,0.0,1021.8
"2018-07-07 00:33:00",16.4,13.7,0.0,0.0,1021.8
"2018-07-07 00:34:00",16.3,13.6,0.0,0.0,1021.9
"2018-07-07 00:35:00",16.3,13.6,0.0,0.0,1021.8
"2018-07-07 00:36:00",16.3,13.6,0.0,0.0,1021.9
"2018-07-07 00:37:00",16.3,13.6,0.0,0.0,1021.9
"2018-07-07 00:38:00",16.3,13.6,0.0,0.0,1021.9
"2018-07-07 00:39:00",16.2,13.5,0.0,0.0,1021.9
"2018-07-07 00:40:00",16.2,13.5,0.0,0.0,1021.9
"2018-07-07 00:41:00",16.2,13.5,0.0,0.0,1021.9
"2018-07-07 00:42:00",16.2,13.5,0.0,0.0,1022.0
"2018-07-07 00:43:00",16.2,13.5,0.0,0.0,1021.9
"2018-07-07 00:44:00",16.2,13.5,0.0,0.0,1021.9
"2018-07-07 00:45:00",16.2,13.5,0.0,0.0,1021.9
"2018-07-07 00:46:00",16.2,13.5,0.0,0.0,1021.9
"2018-07-07 00:47:00",16.2,13.5,0.0,0.0,1021.9
"2018-07-07 00:48:00",16.2,13.7,0.0,0.0,1021.9
"2018-07-07 00:49:00",16.2,13.5,0.0,0.0,1021.9
"2018-07-07 00:50:00",16.2,13.5,0.0,0.0,1021.9
"2018-07-07 00:51:00",16.1,13.4,0.0,0.0,1021.9
"2018-07-07 00:52:00",16.1,13.6,0.0,0.0,1021.9
"2018-07-07 00:53:00",16.1,13.6,0.0,0.0,1021.9
"2018-07-07 00:54:00",16.0,13.5,0.0,0.0,1021.9
"2018-07-07 00:55:00",16.0,13.5,0.0,0.0,1021.9
"2018-07-07 00:56:00",15.9,13.4,0.0,0.0,1021.9
"2018-07-07 00:57:00",15.9,13.4,0.0,0.0,1021.9
"2018-07-07 00:58:00",15.9,13.4,0.0,0.0,1021.9
"2018-07-07 00:59:00",15.9,13.4,0.0,0.0,1021.9
"2018-07-07 01:00:00",15.9,13.4,0.0,0.0,1021.9
"2018-07-07 01:01:00",15.9,13.4,0.0,0.0,1021.9
"2018-07-07 01:02:00",15.9,13.4,0.0,0.0,1021.9
"2018-07-07 01:03:00",15.9,13.4,0.0,0.0,1021.9
"2018-07-07 01:04:00",15.9,13.4,0.0,0.0,1021.9
"2018-07-07 01:05:00",15.9,13.4,0.0,0.0,1021.8
"2018-07-07 01:06:00",15.9,13.4,0.0,0.0,1021.8
"2018-07-07 01:07:00",15.9,13.4,0.0,0.0,1021.9
"2018-07-07 01:08:00",15.9,13.4,0.0,0.0,1021.8
"2018-07-07 01:09:00",15.8,13.3,0.0,0.0,1021.9
"2018-07-07 01:10:00",15.8,13.3,0.0,0.0,1021.8
"2018-07-07 01:11:00",15.8,13.3,0.0,0.0,1021.9
"2018-07-07 01:12:00",15.8,13.3,0.0,0.0,1021.9
"2018-07-07 01:13:00",15.8,13.3,0.0,0.0,1021.9
"2018-07-07 01:14:00",15.7,13.2,0.0,0.0,1021.8
"2018-07-07 01:15:00",15.7,13.2,0.0,0.0,1021.9
"2018-07-07 01:16:00",15.7,13.2,0.0,0.0,1021.9
"2018-07-07 01:17:00",15.7,13.2,0.0,0.0,1021.9
"2018-07-07 01:18:00",15.7,13.2,0.0,0.0,1021.9
"2018-07-07 01:19:00",15.7,13.2,0.0,0.0,1021.9
"2018-07-07 01:20:00",15.6,13.1,0.0,0.0,1021.9
"2018-07-07 01:21:00",15.7,13.2,0.0,0.0,1021.9
"2018-07-07 01:22:00",15.6,13.1,0.0,0.0,1021.9
"2018-07-07 01:23:00",15.6,13.1,0.0,0.0,1022.0
"2018-07-07 01:24:00",15.6,13.1,0.0,0.0,1021.9
"2018-07-07 01:25:00",15.6,13.1,0.0,0.0,1021.9
"2018-07-07 01:26:00",15.5,13.0,0.0,0.0,1022.0
"2018-07-07 01:27:00",15.4,12.9,0.0,0.0,1021.9
"2018-07-07 01:28:00",15.4,13.1,0.0,0.0,1022.0
"2018-07-07 01:29:00",15.4,13.1,0.0,0.0,1022.0
"2018-07-07 01:30:00",15.4,13.1,0.0,0.0,1022.0
"2018-07-07 01:31:00",15.4,13.1,0.0,0.0,1022.0
"2018-07-07 01:32:00",15.4,13.1,0.0,0.0,1022.0
"2018-07-07 01:33:00",15.4,13.1,0.0,0.0,1022.0
"2018-07-07 01:34:00",15.4,13.1,0.0,0.0,1022.0
"2018-07-07 01:35:00",15.3,13.0,0.0,0.0,1022.0
"2018-07-07 01:36:00",15.3,13.0,0.0,0.0,1022.0
"2018-07-07 01:37:00",15.3,13.0,0.0,0.0,1022.0
"2018-07-07 01:38:00",15.3,13.0,0.0,0.0,1022.0
"2018-07-07 01:39:00",15.3,13.0,0.0,0.0,1022.0
"2018-07-07 01:40:00",15.3,13.0,0.0,0.0,1022.1
"2018-07-07 01:41:00",15.3,13.0,0.0,0.0,1022.0
"2018-07-07 01:42:00",15.2,12.9,0.0,0.0,1022.0
"2018-07-07 01:43:00",15.2,12.9,0.0,0.0,1022.1
"2018-07-07 01:44:00",15.2,12.9,0.0,0.0,1022.0
"2018-07-07 01:45:00",15.2,12.9,0.0,0.0,1022.0
"2018-07-07 01:46:00",15.2,12.9,0.0,0.0,1022.0
"2018-07-07 01:47:00",15.2,12.9,0.0,0.0,1022.0
"2018-07-07 01:48:00",15.1,12.8,0.0,0.0,1022.0
"2018-07-07 01:49:00",15.1,12.8,0.0,0.0,1022.1
"2018-07-07 01:50:00",15.1,12.8,0.0,0.0,1022.0
"2018-07-07 01:51:00",15.1,12.8,0.0,0.0,1022.0
"2018-07-07 01:52:00",15.1,12.8,0.0,0.0,1022.0
"2018-07-07 01:53:00",15.1,12.8,0.0,0.0,1022.1
"2018-07-07 01:54:00",15.1,12.8,0.0,0.0,1022.0
"2018-07-07 01:55:00",15.1,12.8,0.0,0.0,1022.1
"2018-07-07 01:56:00",15.1,12.8,0.0,0.0,1022.1
"2018-07-07 01:57:00",15.1,12.8,0.0,0.0,1022.1
"2018-07-07 01:58:00",15.1,12.8,0.0,0.0,1022.1
"2018-07-07 01:59:00",15.1,12.8,0.0,0.0,1022.1
"2018-07-07 02:00:00",15.1,12.8,0.0,0.0,1022.1
"2018-07-07 02:01:00",15.1,12.8,0.0,0.0,1022.1
"2018-07-07 02:02:00",15.1,12.8,0.0,0.0,1022.1
"2018-07-07 02:03:00",15.0,12.7,0.0,0.0,1022.1
"2018-07-07 02:04:00",15.1,12.8,0.0,0.0,1022.1
"2018-07-07 02:05:00",15.1,12.8,0.0,0.0,1022.1
"2018-07-07 02:06:00",15.0,12.7,0.0,0.0,1022.1
"2018-07-07 02:07:00",14.9,12.6,0.0,0.0,1022.1
"2018-07-07 02:08:00",14.9,12.6,0.0,0.0,1022.0
"2018-07-07 02:09:00",14.9,12.6,0.0,0.0,1022.1
"2018-07-07 02:10:00",14.9,12.6,0.0,0.0,1022.0
"2018-07-07 02:11:00",14.9,12.6,0.0,0.0,1022.0
"2018-07-07 02:12:00",14.8,12.5,0.0,0.0,1022.0
"2018-07-07 02:13:00",14.8,12.5,0.0,0.0,1022.0
"2018-07-07 02:14:00",14.8,12.5,0.0,0.0,1022.0
"2018-07-07 02:15:00",14.8,12.5,0.0,0.0,1022.0
"2018-07-07 02:16:00",14.8,12.7,0.0,0.0,1022.0
"2018-07-07 02:17:00",14.8,12.7,0.0,0.0,1022.0
"2018-07-07 02:18:00",14.8,12.7,0.0,0.0,1022.0
"2018-07-07 02:19:00",14.8,12.7,0.0,0.0,1022.0
"2018-07-07 02:20:00",14.8,12.7,0.0,0.0,1022.0
"2018-07-07 02:21:00",14.8,12.7,0.0,0.0,1022.0
"2018-07-07 02:22:00",14.8,12.7,0.0,0.0,1022.0
"2018-07-07 02:23:00",14.8,12.7,0.0,0.0,1022.0
"2018-07-07 02:24:00",14.7,12.6,0.0,0.0,1022.0
"2018-07-07 02:25:00",14.7,12.6,0.0,0.0,1022.0
"2018-07-07 02:26:00",14.7,12.6,0.0,0.0,1022.0
"2018-07-07 02:27:00",14.7,12.6,0.0,0.0,1022.0
"2018-07-07 02:28:00",14.6,12.5,0.0,0.0,1022.0
"2018-07-07 02:29:00",14.6,12.5,0.0,0.0,1022.0
"2018-07-07 02:30:00",14.6,12.5,0.0,0.0,1022.0
"2018-07-07 02:31:00",14.6,12.5,0.0,0.0,1022.0
"2018-07-07 02:32:00",14.6,12.5,0.0,0.0,1022.0
"2018-07-07 02:33:00",14.6,12.5,0.0,0.0,1022.0
"2018-07-07 02:34:00",14.6,12.5,0.0,0.0,1022.0
"2018-07-07 02:35:00",14.6,12.5,0.0,0.0,1022.0
"2018-07-07 02:36:00",14.6,12.5,0.0,0.0,1022.0
"2018-07-07 02:37:00",14.5,12.4,0.0,0.0,1022.0
"2018-07-07 02:38:00",14.5,12.4,0.0,0.0,1022.0
"2018-07-07 02:39:00",14.6,12.5,0.0,0.0,1022.0
"2018-07-07 02:40:00",14.6,12.5,0.0,0.0,1022.0
"2018-07-07 02:41:00",14.5,12.4,0.0,0.0,1022.0
"2018-07-07 02:42:00",14.4,12.3,0.0,0.0,1022.0
"2018-07-07 02:43:00",14.4,12.3,0.0,0.0,1022.0
"2018-07-07 02:44:00",14.4,12.3,0.0,0.0,1022.0
"2018-07-07 02:45:00",14.4,12.3,0.0,0.0,1022.0
"2018-07-07 02:46:00",14.3,12.2,0.0,0.0,1022.0
"2018-07-07 02:47:00",14.3,12.2,0.0,0.0,1022.0
"2018-07-07 02:48:00",14.3,12.2,0.0,0.0,1022.0
"2018-07-07 02:49:00",14.3,12.2,0.0,0.0,1022.1
"2018-07-07 02:50:00",14.3,12.2,0.0,0.0,1022.0
"2018-07-07 02:51:00",14.3,12.2,0.0,0.0,1022.0
"2018-07-07 02:52:00",14.3,12.2,0.0,0.0,1022.0
"2018-07-07 02:53:00",14.3,12.3,0.0,0.0,1022.0
"2018-07-07 02:54:00",14.3,12.3,0.0,0.0,1022.0
"2018-07-07 02:55:00",14.3,12.3,0.0,0.0,1022.0
"2018-07-07 02:56:00",14.3,12.2,0.0,0.0,1022.0
"2018-07-07 02:57:00",14.3,12.3,0.0,0.0,1022.0
"2018-07-07 02:58:00",14.3,12.3,0.0,0.0,1022.0
"2018-07-07 02:59:00",14.3,12.3,0.0,0.0,1022.0
"2018-07-07 03:00:00",14.3,12.3,0.0,0.0,1022.1
"2018-07-07 03:01:00",14.3,12.3,0.0,0.0,1022.1
"2018-07-07 03:02:00",14.3,12.3,0.0,0.0,1022.0
"2018-07-07 03:03:00",14.3,12.3,0.0,0.0,1022.0
"2018-07-07 03:04:00",14.3,12.3,0.0,0.0,1022.0
"2018-07-07 03:05:00",14.3,12.3,0.0,0.0,1022.0
"2018-07-07 03:06:00",14.3,12.3,0.0,0.0,1022.0
"2018-07-07 03:07:00",14.3,12.3,0.0,0.0,1021.9
"2018-07-07 03:08:00",14.3,12.3,0.0,0.0,1021.9
"2018-07-07 03:09:00",14.3,12.3,0.0,0.0,1022.0
"2018-07-07 03:10:00",14.3,12.3,0.0,0.0,1021.9
"2018-07-07 03:11:00",14.3,12.3,0.0,0.0,1021.9
"2018-07-07 03:12:00",14.4,12.4,0.0,0.0,1021.9
"2018-07-07 03:13:00",14.4,12.4,0.0,0.0,1021.9
"2018-07-07 03:14:00",14.3,12.3,0.0,0.0,1021.9
"2018-07-07 03:15:00",14.3,12.3,0.0,0.0,1021.9
"2018-07-07 03:16:00",14.3,12.3,0.0,0.0,1021.9
"2018-07-07 03:17:00",14.2,12.1,0.0,0.0,1021.9
"2018-07-07 03:18:00",14.2,12.1,0.0,0.0,1021.9
"2018-07-07 03:19:00",14.1,12.0,0.0,0.0,1021.9
"2018-07-07 03:20:00",14.1,12.0,0.0,0.0,1021.9
"2018-07-07 03:21:00",14.1,12.0,0.0,0.0,1021.9
"2018-07-07 03:22:00",14.1,12.1,0.0,0.0,1021.9
"2018-07-07 03:23:00",14.0,12.0,0.0,0.0,1021.9
"2018-07-07 03:24:00",14.0,12.0,0.0,0.0,1021.9
"2018-07-07 03:25:00",14.0,12.0,0.0,0.0,1021.9
"2018-07-07 03:26:00",13.9,11.9,0.0,0.0,1021.9
"2018-07-07 03:27:00",13.9,11.9,0.0,0.0,1021.9
"2018-07-07 03:28:00",13.9,11.9,0.0,0.0,1021.9
"2018-07-07 03:29:00",13.9,11.9,0.0,0.0,1021.9
"2018-07-07 03:30:00",13.9,11.9,0.0,0.0,1021.8
"2018-07-07 03:31:00",13.9,11.9,0.0,0.0,1021.9
"2018-07-07 03:32:00",13.9,11.9,0.0,0.0,1021.9
"2018-07-07 03:33:00",13.9,11.9,0.0,0.0,1021.8
"2018-07-07 03:34:00",14.0,12.0,0.0,0.0,1021.8
"2018-07-07 03:35:00",14.0,12.0,0.0,0.0,1021.8
"2018-07-07 03:36:00",14.0,12.0,0.0,0.0,1021.7
"2018-07-07 03:37:00",13.9,11.9,0.0,0.0,1021.8
"2018-07-07 03:38:00",13.9,11.9,0.0,0.0,1021.8
"2018-07-07 03:39:00",13.9,11.9,0.0,0.0,1021.7
"2018-07-07 03:40:00",13.9,11.9,0.0,0.0,1021.8
"2018-07-07 03:41:00",13.8,11.8,0.0,0.0,1021.7
"2018-07-07 03:42:00",13.8,11.8,0.0,0.0,1021.7
"2018-07-07 03:43:00",13.8,11.8,0.0,0.0,1021.7
"2018-07-07 03:44:00",13.8,11.8,0.0,0.0,1021.7
"2018-07-07 03:45:00",13.8,11.8,0.0,0.0,1021.7
"2018-07-07 03:46:00",13.8,11.8,0.0,0.0,1021.8
"2018-07-07 03:47:00",13.8,11.8,0.0,0.0,1021.8
"2018-07-07 03:48:00",13.8,11.8,0.0,0.0,1021.7
"2018-07-07 03:49:00",13.8,11.8,0.0,0.0,1021.7
"2018-07-07 03:50:00",13.7,11.7,0.0,0.0,1021.7
"2018-07-07 03:51:00",13.7,11.7,0.0,0.0,1021.7
"2018-07-07 03:52:00",13.7,11.7,0.0,0.0,1021.8
"2018-07-07 03:53:00",13.7,11.7,0.0,0.0,1021.8
"2018-07-07 03:54:00",13.7,11.7,0.0,0.0,1021.8
"2018-07-07 03:55:00",13.7,11.7,0.0,0.0,1021.8
"2018-07-07 03:56:00",13.7,11.7,0.0,0.0,1021.8
"2018-07-07 03:57:00",13.7,11.7,0.0,0.0,1021.8
"2018-07-07 03:58:00",13.7,11.7,0.0,0.0,1021.8
"2018-07-07 03:59:00",13.7,11.7,0.0,0.0,1021.8
"2018-07-07 04:00:00",13.7,11.7,0.0,0.0,1021.8
"2018-07-07 04:01:00",13.7,11.7,0.0,0.0,1021.8
"2018-07-07 04:02:00",13.7,11.7,0.0,0.0,1021.8
"2018-07-07 04:03:00",13.7,11.7,0.0,0.0,1021.7
"2018-07-07 04:04:00",13.7,11.7,0.0,0.0,1021.8
"2018-07-07 04:05:00",13.7,11.7,0.0,0.0,1021.8
"2018-07-07 04:06:00",13.7,11.9,0.0,0.0,1021.8
"2018-07-07 04:07:00",13.7,11.9,0.0,0.0,1021.8
"2018-07-07 04:08:00",13.7,11.9,0.0,0.0,1021.8
"2018-07-07 04:09:00",13.7,11.9,0.0,0.0,1021.8
"2018-07-07 04:10:00",13.7,11.9,0.0,0.0,1021.8
"2018-07-07 04:11:00",13.6,11.6,0.0,0.0,1021.8
"2018-07-07 04:12:00",13.6,11.6,0.0,0.0,1021.8
"2018-07-07 04:13:00",13.6,11.6,0.0,0.0,1021.8
"2018-07-07 04:14:00",13.6,11.6,0.0,0.0,1021.8
"2018-07-07 04:15:00",13.6,11.6,0.0,0.0,1021.8
"2018-07-07 04:16:00",13.6,11.6,0.0,0.0,1021.8
"2018-07-07 04:17:00",13.6,11.6,0.0,0.0,1021.8
"2018-07-07 04:18:00",13.6,11.6,0.0,0.0,1021.8
"2018-07-07 04:19:00",13.6,11.6,0.0,0.0,1021.9
"2018-07-07 04:20:00",13.6,11.6,0.0,0.0,1021.8
"2018-07-07 04:21:00",13.5,11.6,0.0,0.0,1021.8
"2018-07-07 04:22:00",13.6,11.6,0.0,0.0,1021.9
"2018-07-07 04:23:00",13.6,11.8,0.0,0.0,1021.9
"2018-07-07 04:24:00",13.6,11.8,0.0,0.0,1021.9
"2018-07-07 04:25:00",13.6,11.8,0.0,0.0,1021.9
"2018-07-07 04:26:00",13.6,11.8,0.0,0.0,1021.9
"2018-07-07 04:27:00",13.5,11.7,0.0,0.0,1021.9
"2018-07-07 04:28:00",13.5,11.7,0.0,0.0,1021.9
"2018-07-07 04:29:00",13.5,11.7,0.0,0.0,1021.9
"2018-07-07 04:30:00",13.5,11.7,0.0,0.0,1021.9
"2018-07-07 04:31:00",13.5,11.7,0.0,0.0,1021.9
"2018-07-07 04:32:00",13.5,11.7,0.0,0.0,1021.9
"2018-07-07 04:33:00",13.5,11.7,0.0,0.0,1021.9
"2018-07-07 04:34:00",13.5,11.7,0.0,0.0,1021.9
"2018-07-07 04:35:00",13.5,11.7,0.0,0.0,1021.9
"2018-07-07 04:36:00",13.5,11.7,0.0,0.0,1021.9
"2018-07-07 04:37:00",13.4,11.6,0.0,0.0,1021.9
"2018-07-07 04:38:00",13.4,11.6,0.0,0.0,1021.9
"2018-07-07 04:39:00",13.4,11.6,0.0,0.0,1021.9
"2018-07-07 04:40:00",13.4,11.6,0.0,0.0,1021.9
"2018-07-07 04:41:00",13.3,11.5,0.0,0.0,1021.9
"2018-07-07 04:42:00",13.3,11.5,0.0,0.0,1021.9
"2018-07-07 04:43:00",13.3,11.5,0.0,0.0,1022.0
"2018-07-07 04:44:00",13.3,11.5,0.0,0.0,1021.9
"2018-07-07 04:45:00",13.3,11.5,0.0,0.0,1022.0
"2018-07-07 04:46:00",13.3,11.5,0.0,0.0,1022.0
"2018-07-07 04:47:00",13.3,11.5,0.0,0.0,1022.0
"2018-07-07 04:48:00",13.3,11.5,0.0,0.0,1022.0
"2018-07-07 04:49:00",13.3,11.5,0.0,0.0,1022.0
"2018-07-07 04:50:00",13.3,11.5,0.0,0.0,1022.0
"2018-07-07 04:51:00",13.3,11.5,0.0,0.0,1022.1
"2018-07-07 04:52:00",13.3,11.5,0.0,0.0,1022.0
"2018-07-07 04:53:00",13.3,11.5,0.0,0.0,1022.0
"2018-07-07 04:54:00",13.3,11.5,0.0,0.0,1022.0
"2018-07-07 04:55:00",13.3,11.5,0.0,0.0,1022.0
"2018-07-07 04:56:00",13.2,11.4,0.0,0.0,1022.0
"2018-07-07 04:57:00",13.2,11.4,0.0,0.0,1022.0
"2018-07-07 04:58:00",13.2,11.4,0.0,0.0,1022.0
"2018-07-07 04:59:00",13.2,11.4,0.0,0.0,1022.0
"2018-07-07 05:00:00",13.2,11.4,0.0,0.0,1022.0
"2018-07-07 05:01:00",13.2,11.4,0.0,0.0,1022.0
"2018-07-07 05:02:00",13.2,11.4,0.0,0.0,1022.0
"2018-07-07 05:03:00",13.2,11.4,0.0,0.0,1022.0
"2018-07-07 05:04:00",13.2,11.4,0.0,0.0,1022.0
"2018-07-07 05:05:00",13.2,11.4,0.0,0.0,1022.0
"2018-07-07 05:06:00",13.2,11.4,0.0,0.0,1022.1
"2018-07-07 05:07:00",13.2,11.4,0.0,0.0,1022.0
"2018-07-07 05:08:00",13.2,11.4,0.0,0.0,1022.1
"2018-07-07 05:09:00",13.2,11.4,0.0,0.0,1022.1
"2018-07-07 05:10:00",13.2,11.4,0.0,0.0,1022.0
"2018-07-07 05:11:00",13.2,11.4,0.0,0.0,1022.0
"2018-07-07 05:12:00",13.2,11.4,0.0,0.0,1022.1
"2018-07-07 05:13:00",13.1,11.3,0.0,0.0,1022.1
"2018-07-07 05:14:00",13.2,11.4,0.0,0.0,1022.1
"2018-07-07 05:15:00",13.2,11.4,0.0,0.0,1022.0
"2018-07-07 05:16:00",13.2,11.4,0.0,0.0,1022.0
"2018-07-07 05:17:00",13.2,11.4,0.0,0.0,1022.1
"2018-07-07 05:18:00",13.2,11.4,0.0,0.0,1022.1
"2018-07-07 05:19:00",13.2,11.4,0.0,0.0,1022.0
"2018-07-07 05:20:00",13.2,11.4,0.0,0.0,1022.1
"2018-07-07 05:21:00",13.2,11.4,0.0,0.0,1022.1
"2018-07-07 05:22:00",13.2,11.4,0.0,0.0,1022.1
"2018-07-07 05:23:00",13.2,11.4,0.0,0.0,1022.1
"2018-07-07 05:24:00",13.2,11.4,0.0,0.0,1022.1
"2018-07-07 05:25:00",13.2,11.4,0.0,0.0,1022.1
"2018-07-07 05:26:00",13.2,11.4,0.0,0.0,1022.2
"2018-07-07 05:27:00",13.2,11.4,0.0,0.0,1022.1
"2018-07-07 05:28:00",13.2,11.4,0.0,0.0,1022.1
"2018-07-07 05:29:00",13.2,11.4,0.0,0.0,1022.1
"2018-07-07 05:30:00",13.2,11.4,0.0,0.0,1022.1
"2018-07-07 05:31:00",13.2,11.4,0.0,0.0,1022.1
"2018-07-07 05:32:00",13.2,11.4,0.0,0.0,1022.1
"2018-07-07 05:33:00",13.2,11.4,0.0,0.0,1022.1
"2018-07-07 05:34:00",13.2,11.4,0.0,0.0,1022.1
"2018-07-07 05:35:00",13.2,11.4,0.0,0.0,1022.1
"2018-07-07 05:36:00",13.2,11.4,0.0,0.0,1022.1
"2018-07-07 05:37:00",13.2,11.4,0.0,0.0,1022.1
"2018-07-07 05:38:00",13.2,11.4,0.0,0.0,1022.1
"2018-07-07 05:39:00",13.2,11.4,0.0,0.0,1022.1
"2018-07-07 05:40:00",13.2,11.4,0.0,0.0,1022.1
"2018-07-07 05:41:00",13.2,11.4,0.0,0.0,1022.1
"2018-07-07 05:42:00",13.2,11.4,0.0,0.0,1022.1
"2018-07-07 05:43:00",13.2,11.4,0.0,0.0,1022.1
"2018-07-07 05:44:00",13.2,11.4,0.0,0.0,1022.1
"2018-07-07 05:45:00",13.3,11.5,0.0,0.0,1022.1
"2018-07-07 05:46:00",13.2,11.4,0.0,0.0,1022.2
"2018-07-07 05:47:00",13.3,11.5,0.0,0.0,1022.1
"2018-07-07 05:48:00",13.3,11.5,0.0,0.0,1022.1
"2018-07-07 05:49:00",13.3,11.5,0.0,0.0,1022.1
"2018-07-07 05:50:00",13.3,11.5,0.0,0.0,1022.1
"2018-07-07 05:51:00",13.3,11.5,0.0,0.0,1022.1
"2018-07-07 05:52:00",13.3,11.5,0.0,0.0,1022.1
"2018-07-07 05:53:00",13.3,11.5,0.0,0.0,1022.1
"2018-07-07 05:54:00",13.3,11.5,0.0,0.0,1022.2
"2018-07-07 05:55:00",13.4,11.6,0.0,0.0,1022.2
"2018-07-07 05:56:00",13.4,11.6,0.0,0.0,1022.2
"2018-07-07 05:57:00",13.4,11.6,0.0,0.0,1022.1
"2018-07-07 05:58:00",13.4,11.8,0.0,0.0,1022.2
"2018-07-07 05:59:00",13.4,11.8,0.0,0.0,1022.2
"2018-07-07 06:00:00",13.4,11.6,0.0,0.0,1022.1
"2018-07-07 06:01:00",13.5,11.7,0.0,0.0,1022.2
"2018-07-07 06:02:00",13.6,12.0,0.0,0.0,1022.2
"2018-07-07 06:03:00",13.6,11.8,0.0,0.0,1022.2
"2018-07-07 06:04:00",13.6,11.8,0.0,0.0,1022.2
"2018-07-07 06:05:00",13.6,11.8,0.0,0.0,1022.2
"2018-07-07 06:06:00",13.6,11.8,0.0,0.0,1022.2
"2018-07-07 06:07:00",13.6,11.8,0.0,0.0,1022.2
"2018-07-07 06:08:00",13.6,11.8,0.0,0.0,1022.3
"2018-07-07 06:09:00",13.6,11.8,0.0,0.0,1022.3
"2018-07-07 06:10:00",13.6,11.8,0.0,0.0,1022.2
"2018-07-07 06:11:00",13.6,11.8,0.0,0.0,1022.3
"2018-07-07 06:12:00",13.7,11.9,0.0,0.0,1022.3
"2018-07-07 06:13:00",13.7,11.9,0.0,0.0,1022.3
"2018-07-07 06:14:00",13.7,11.9,0.0,0.0,1022.3
"2018-07-07 06:15:00",13.7,11.9,0.0,0.0,1022.3
"2018-07-07 06:16:00",13.8,12.0,0.0,0.0,1022.3
"2018-07-07 06:17:00",13.8,12.0,0.0,0.0,1022.3
"2018-07-07 06:18:00",13.8,12.0,0.0,0.0,1022.3
"2018-07-07 06:19:00",13.8,12.0,0.0,0.0,1022.3
"2018-07-07 06:20:00",13.8,12.0,0.0,0.0,1022.3
"2018-07-07 06:21:00",13.8,12.0,0.0,0.0,1022.4
"2018-07-07 06:22:00",13.9,12.1,0.0,0.0,1022.4
"2018-07-07 06:23:00",13.9,12.1,0.0,0.0,1022.4
"2018-07-07 06:24:00",13.9,12.1,0.0,0.0,1022.4
"2018-07-07 06:25:00",14.0,12.2,0.0,0.0,1022.3
"2018-07-07 06:26:00",14.0,12.2,0.0,0.0,1022.3
"2018-07-07 06:27:00",14.1,12.3,0.0,0.0,1022.4
"2018-07-07 06:28:00",14.1,12.3,0.0,0.0,1022.4
"2018-07-07 06:29:00",14.2,12.4,0.0,0.0,1022.4
"2018-07-07 06:30:00",14.2,12.4,0.0,0.0,1022.4
"2018-07-07 06:31:00",14.2,12.4,0.0,0.0,1022.4
"2018-07-07 06:32:00",14.3,12.5,0.0,0.0,1022.4
"2018-07-07 06:33:00",14.3,12.5,0.0,0.0,1022.4
"2018-07-07 06:34:00",14.3,12.5,0.0,0.0,1022.4
"2018-07-07 06:35:00",14.3,12.5,0.0,0.0,1022.4
"2018-07-07 06:36:00",14.4,12.6,0.0,0.0,1022.4
"2018-07-07 06:37:00",14.4,12.6,0.0,0.0,1022.4
"2018-07-07 06:38:00",14.5,12.7,0.0,0.0,1022.4
"2018-07-07 06:39:00",14.5,12.7,0.0,0.0,1022.4
"2018-07-07 06:40:00",14.6,12.8,0.0,0.0,1022.4
"2018-07-07 06:41:00",14.6,12.8,0.0,0.0,1022.4
"2018-07-07 06:42:00",14.6,12.8,0.0,0.0,1022.5
"2018-07-07 06:43:00",14.7,12.9,0.0,0.0,1022.5
"2018-07-07 06:44:00",14.7,12.9,0.0,0.0,1022.5
"2018-07-07 06:45:00",14.7,12.9,0.0,0.0,1022.5
"2018-07-07 06:46:00",14.8,13.0,0.0,0.0,1022.5
"2018-07-07 06:47:00",14.8,13.0,0.0,0.0,1022.5
"2018-07-07 06:48:00",14.8,13.0,0.0,0.0,1022.5
"2018-07-07 06:49:00",14.9,13.1,0.0,0.0,1022.5
"2018-07-07 06:50:00",14.9,13.1,0.0,0.0,1022.5
"2018-07-07 06:51:00",14.9,13.1,0.0,0.0,1022.5
"2018-07-07 06:52:00",15.0,13.2,0.0,0.0,1022.5
"2018-07-07 06:53:00",15.1,13.3,0.0,0.0,1022.5
"2018-07-07 06:54:00",15.1,13.3,0.0,0.0,1022.5
"2018-07-07 06:55:00",15.1,13.3,0.0,0.0,1022.6
"2018-07-07 06:56:00",15.2,13.4,0.0,0.0,1022.6
"2018-07-07 06:57:00",15.2,13.4,0.0,0.0,1022.6
"2018-07-07 06:58:00",15.3,13.5,0.0,0.0,1022.6
"2018-07-07 06:59:00",15.3,13.5,0.0,0.0,1022.7
"2018-07-07 07:00:00",15.3,13.5,0.0,0.0,1022.6
"2018-07-07 07:01:00",15.4,13.6,0.0,0.0,1022.7
"2018-07-07 07:02:00",15.4,13.6,0.0,0.0,1022.6
"2018-07-07 07:03:00",15.5,13.7,0.0,0.0,1022.6
"2018-07-07 07:04:00",15.6,13.8,0.0,0.0,1022.7
"2018-07-07 07:05:00",15.6,13.8,0.0,0.0,1022.6
"2018-07-07 07:06:00",15.7,13.9,0.0,0.0,1022.6
"2018-07-07 07:07:00",15.7,13.9,0.0,0.0,1022.7
"2018-07-07 07:08:00",15.7,13.9,0.0,0.0,1022.6
"2018-07-07 07:09:00",15.8,13.8,0.0,0.0,1022.7
"2018-07-07 07:10:00",15.8,13.8,0.0,0.0,1022.6
"2018-07-07 07:11:00",15.9,13.9,0.0,0.5,1022.7
"2018-07-07 07:12:00",15.9,13.9,0.0,0.5,1022.6
"2018-07-07 07:13:00",16.1,14.1,0.0,0.5,1022.7
"2018-07-07 07:14:00",16.1,14.1,0.0,0.5,1022.7
"2018-07-07 07:15:00",16.2,14.2,0.0,0.5,1022.7
"2018-07-07 07:16:00",16.2,14.2,0.0,0.5,1022.7
"2018-07-07 07:17:00",16.3,14.3,0.0,0.5,1022.7
"2018-07-07 07:18:00",16.3,14.3,0.0,0.6,1022.6
"2018-07-07 07:19:00",16.4,14.4,0.0,0.6,1022.7
"2018-07-07 07:20:00",16.5,14.5,0.0,0.6,1022.7
"2018-07-07 07:21:00",16.6,14.6,0.0,0.6,1022.7
"2018-07-07 07:22:00",16.6,14.6,0.0,0.6,1022.7
"2018-07-07 07:23:00",16.7,14.5,0.0,0.6,1022.7
"2018-07-07 07:24:00",16.8,14.6,0.0,0.6,1022.6
"2018-07-07 07:25:00",16.9,14.7,0.0,0.6,1022.7
"2018-07-07 07:26:00",16.9,14.7,0.0,0.7,1022.7
"2018-07-07 07:27:00",17.1,14.9,0.0,0.7,1022.7
"2018-07-07 07:28:00",17.1,14.9,0.0,0.7,1022.7
"2018-07-07 07:29:00",17.2,14.8,0.0,0.7,1022.7
"2018-07-07 07:30:00",17.2,14.8,0.0,0.7,1022.7
"2018-07-07 07:31:00",17.3,14.9,0.0,0.7,1022.7
"2018-07-07 07:32:00",17.3,14.9,0.0,0.8,1022.7
"2018-07-07 07:33:00",17.4,15.0,0.0,0.8,1022.7
"2018-07-07 07:34:00",17.6,15.0,0.0,0.8,1022.7
"2018-07-07 07:35:00",17.7,15.1,0.0,0.8,1022.7
"2018-07-07 07:36:00",17.8,15.2,0.0,0.8,1022.7
"2018-07-07 07:37:00",17.9,15.2,0.0,0.8,1022.7
"2018-07-07 07:38:00",18.0,15.3,0.0,0.8,1022.7
"2018-07-07 07:39:00",18.1,15.4,0.0,0.8,1022.8
"2018-07-07 07:40:00",18.2,15.5,0.0,0.9,1022.8
"2018-07-07 07:41:00",18.2,15.3,0.0,0.9,1022.8
"2018-07-07 07:42:00",18.3,15.4,0.0,0.9,1022.8
"2018-07-07 07:43:00",18.3,15.4,0.0,0.9,1022.8
"2018-07-07 07:44:00",18.3,15.4,0.0,0.9,1022.8
"2018-07-07 07:45:00",18.3,15.4,0.0,0.9,1022.9
"2018-07-07 07:46:00",18.3,15.4,0.0,0.9,1022.8
"2018-07-07 07:47:00",18.3,15.4,0.0,0.9,1022.8
"2018-07-07 07:48:00",18.3,15.4,0.0,1.0,1022.9
"2018-07-07 07:49:00",18.4,15.5,0.0,1.0,1022.8
"2018-07-07 07:50:00",18.5,15.6,0.0,1.0,1022.9
"2018-07-07 07:51:00",18.6,15.5,0.0,1.0,1022.8
"2018-07-07 07:52:00",18.7,15.6,0.0,1.0,1022.9
"2018-07-07 07:53:00",18.8,15.7,0.0,1.0,1022.9
"2018-07-07 07:54:00",18.8,15.5,0.0,1.0,1022.9
"2018-07-07 07:55:00",18.9,15.6,0.0,1.0,1022.9
"2018-07-07 07:56:00",19.1,15.8,0.0,1.0,1022.9
"2018-07-07 07:57:00",19.2,15.9,0.0,1.0,1022.9
"2018-07-07 07:58:00",19.2,15.7,0.0,1.0,1022.9
"2018-07-07 07:59:00",19.3,15.8,0.0,1.0,1022.9
"2018-07-07 08:00:00",19.4,15.7,0.0,1.0,1022.9
"2018-07-07 08:01:00",19.4,15.7,0.0,1.0,1022.9
"2018-07-07 08:02:00",19.5,15.8,0.0,0.9,1022.9
"2018-07-07 08:03:00",19.6,15.9,0.0,0.9,1022.9
"2018-07-07 08:04:00",19.6,15.9,0.0,1.1,1023.0
"2018-07-07 08:05:00",19.6,15.9,0.0,1.1,1023.0
"2018-07-07 08:06:00",19.7,16.0,0.0,1.2,1022.9
"2018-07-07 08:07:00",19.7,16.0,0.0,1.2,1022.9
"2018-07-07 08:08:00",19.7,16.0,0.0,1.2,1023.0
"2018-07-07 08:09:00",19.8,15.9,0.0,1.2,1023.0
"2018-07-07 08:10:00",19.7,16.0,0.0,1.1,1022.9
"2018-07-07 08:11:00",19.7,16.0,0.0,1.0,1023.0
"2018-07-07 08:12:00",19.7,16.0,0.0,1.0,1023.0
"2018-07-07 08:13:00",19.7,16.0,0.0,1.0,1023.0
"2018-07-07 08:14:00",19.7,16.0,0.0,1.1,1023.0
"2018-07-07 08:15:00",19.7,16.0,0.0,1.3,1023.0
"2018-07-07 08:16:00",19.7,16.2,0.0,1.3,1023.0
"2018-07-07 08:17:00",19.7,16.0,0.0,1.3,1023.0
"2018-07-07 08:18:00",19.7,16.2,0.0,1.3,1023.0
"2018-07-07 08:19:00",19.8,16.1,0.0,1.3,1023.0
"2018-07-07 08:20:00",19.8,16.1,0.0,1.2,1023.0
"2018-07-07 08:21:00",19.9,16.1,0.0,1.2,1023.0
"2018-07-07 08:22:00",20.0,16.0,0.0,1.1,1023.0
"2018-07-07 08:23:00",20.1,16.1,0.0,1.1,1023.0
"2018-07-07 08:24:00",20.1,16.1,0.0,1.1,1023.0
"2018-07-07 08:25:00",20.1,16.1,0.0,1.1,1023.0
"2018-07-07 08:26:00",20.2,16.0,0.0,1.1,1023.0
"2018-07-07 08:27:00",20.2,16.0,0.0,1.1,1023.0
"2018-07-07 08:28:00",20.2,16.0,0.0,1.1,1023.0